Regional Weather Roundup
Issued by NWS

Home | Current Version | Previous Version | Graphics & Text | Print | Product List | Glossary On
Versions: 1 2 3 4 5 6 7 8 9 10 11 12 13 14 15 16 17 18 19 20 21 22 23 24 25 26 27 28 29 30 31 32 33 34 35 36 37 38 39 40 41 42 43 44 45 46 47 48 49 50
000
ASUS43 KMPX 171601
RWRMN
WEATHER ROUNDUP FOR MINNESOTA
NATIONAL WEATHER SERVICE TWIN CITIES/CHANHASSEN MN
1000 AM CST WED JAN 17 2018


NOTE: "FAIR" INDICATES FEW OR NO CLOUDS BELOW 12,000 FEET WITH NO
SIGNIFICANT WEATHER AND/OR OBSTRUCTIONS TO VISIBILITY. N/A MEANS
CURRENT SKY AND/OR WEATHER CONDITIONS ARE NOT AVAILABLE.

MNZ060>063-068>070-171700-
   Twin Cities Metro

CITY           SKY/WX    TMP DP  RH WIND       PRES   REMARKS
TWIN CITIES    PTSUNNY   14   3  61 SW13G21   30.29F WCI   0
ST PAUL        FAIR       9   3  77 SE6       30.31F WCI  -1
CRYSTAL        FAIR      11  -1  58 SW9G18    30.26F WCI  -2
BLAINE         PTSUNNY   14   3  62 SW12G18   30.25F WCI   0
LAKEVILLE      FAIR      12   1  62 SW7       30.29S WCI   2
EDEN PRAIRIE   FAIR      11   1  64 SW15      30.28S WCI  -5
SOUTH ST PAUL  FAIR      11   2  67 SE3       30.30S
LAKE ELMO      FAIR      12   3  67 S10       30.28F WCI  -1
$$
MNZ001>005-007-008-013>017-022>024-027-028-171700-
   Northwest Minnesota

CITY           SKY/WX    TMP DP  RH WIND       PRES   REMARKS
BEMIDJI        FAIR      19   3  51 SW9       29.98F WCI   7
HALLOCK        FAIR       7   1  78 S20       29.92S WCI -13
ROSEAU         FAIR      12   3  67 SW17      29.89S WCI  -5
WARROAD        HVY SNOW  10   3  72 SW20G28   29.86F VSB<1/4 WCI  -8
CROOKSTON      FAIR       9   3  78 S20       30.03S WCI -11
FOSSTON        FAIR      10   1  67 S17       30.02F HAZE    WCI  -7
DETROIT LAKES  FAIR      14   3  62 SW9G16    30.09R WCI   2
MOORHEAD       FAIR       9   0  66 S12       30.11F WCI  -6
PARK RAPIDS    FAIR      10   0  63 SW7       30.05F WCI  -1
MAHNOMEN       FAIR      10   2  70 SW21      30.05S WCI  -9
$$
MNZ006-009>011-018-025>026-171700-
   North Central Minnesota

CITY           SKY/WX    TMP DP  RH WIND       PRES   REMARKS
BAUDETTE       FAIR      14   2  58 SW9       29.87F WCI   2
FLAG ISLAND    FAIR      10   1  67 SW10      29.84F WCI  -3
INTL FALLS     FAIR      19   3  49 W14G20    29.89S WCI   6
WASKISH        FAIR      18   5  57 SW14      29.92F WCI   4
BIG FORK       FAIR      19   3  49 SW16G22   29.94F WCI   5
LONGVILLE      FAIR      12   0  57 S8        30.05F WCI   1
GRAND RAPIDS   FAIR      14   1  56 S9        30.02F WCI   2
CRANE LAKE     FAIR      14   1  57 S6        29.93F WCI   5
ORR            FAIR      16   0  48 S5        29.90F WCI   9
COOK           FAIR      16   3  57 SW13      29.95F WCI   2
WALKER         LGT SNOW  17   0  46 SW17G24   30.01F WCI   1
$$
MNZ012-019>021-037-171700-
   Northeast Minnesota

CITY           SKY/WX    TMP DP  RH WIND       PRES   REMARKS
DULUTH         FAIR       7  -1  70 W20G28    30.02F WCI -13
ELY            FAIR      12   1  62 SW14      29.92F WCI  -3
HIBBING        FAIR      10   1  67 SW7G18    30.00F WCI  -1
EVELETH        FLURRIES  12   0  58 SW12      30.00F WCI  -2
DULUTH HARBOR  FAIR      10   1  67 SW14      30.12F WCI  -5
TWO HARBORS    FAIR      12   1  62 SW10      30.02F WCI  -1
SILVER BAY     FAIR      14   3  62 SW7       29.98F WCI   4
GRAND MARAIS     N/A     21  13  71 W13G21    29.97F WCI   9
G MARAIS ARPRT FAIR      10  -2  56 SW3       29.88F
$$
MNZ029>031-032-039>041-046>048-054>057-064-171700-
   West Central Minnesota

CITY           SKY/WX    TMP DP  RH WIND       PRES   REMARKS
FERGUS FALLS   FAIR      10   1  67 S9        30.18R WCI  -2
WHEATON        CLOUDY    18   7  62 S10       30.14F WCI   6
MORRIS         CLOUDY    14   5  67 S14       30.14F WCI  -1
ALEXANDRIA     FAIR      13   2  61 SW16      30.12F WCI  -3
ELBOW LAKE     FAIR      11   3  70 S15       30.13F HAZE    WCI  -5
WADENA         FAIR      12   1  62 SW3       30.08S
GLENWOOD       FAIR      10   3  72 SW15      30.15F WCI  -6
APPLETON       CLOUDY    16   3  57 S10       30.19F WCI   3
BENSON         CLOUDY    12   3  67 SW12      30.19F WCI  -2
ORTONVILLE     CLOUDY    16   5  62 S8        30.16F WCI   5
MADISON        CLOUDY    19   7  58 SW12      30.20F WCI   7
WILLMAR        FAIR      12   3  67 S6        30.23F WCI   3
$$
MNZ033>034-036-042>043-049>051-058-059-171700-
   Central Minnesota

CITY           SKY/WX    TMP DP  RH WIND       PRES   REMARKS
ST CLOUD       FAIR      10   2  69 S13       30.20F WCI  -5
SAUK CENTRE      N/A     11   2  66 SW12      30.16F WCI  -3
PAYNESVILLE    FAIR      12   4  71 SW12      30.20F WCI  -2
AITKIN         FAIR      10   0  61 SW9       30.09F WCI  -2
PINE RIVER     FAIR      10   0  61 S6        30.11S WCI   1
BRAINERD       FAIR      10  -1  61 SW16      30.11F WCI  -7
STAPLES        FAIR      12   0  57 S12       30.09F WCI  -2
LONG PRAIRIE   FAIR      10   1  67 S14       30.13F WCI  -5
LITTLE FALLS   FAIR      10  -4  52 SW8       30.16F WCI  -1
LITCHFIELD     FAIR      12   5  73 SW6       30.22F WCI   3
BUFFALO        FAIR      11   2  66 S9        30.26F WCI  -1
MAPLE LAKE     FAIR      11   4  71 MISG      30.24F
HUTCHINSON     FAIR      13   5  69 SW12      30.26S WCI  -1
$$
MNZ037-044-045-052-053-171700-
   East Central Minnesota

CITY           SKY/WX    TMP DP  RH WIND       PRES   REMARKS
PRINCETON      FAIR      10   3  72 S7        30.21F HAZE    WCI   0
MORA           FAIR      10   1  67 SW7       30.21F WCI   0
CAMBRIDGE      FAIR      10   1  67 S7        30.22F WCI   0
RUSH CITY      FAIR       9   1  68 S8        30.22F WCI  -3
MOOSE LAKE     FAIR       9   0  66 SW10      30.12F WCI  -6
HINCKLEY       FAIR       9   1  72 SW12      30.19F WCI  -6
CLOQUET        FAIR       7  -2  66 SW13      30.06F WCI  -9
MCGREGOR       FAIR      12   3  67 S13       30.09F WCI  -3
$$
MNZ071>073-080-081-089-090-097-098-171700-
   Southwest Minnesota

CITY           SKY/WX    TMP DP  RH WIND       PRES   REMARKS
MONTEVIDEO     CLOUDY    18   7  62 W13G18    30.21F WCI   4
GRANITE FALLS  CLOUDY    16   6  66 S9        30.25F WCI   4
CANBY          CLOUDY    17   5  59 SW13G23   30.22S WCI   4
MARSHALL       CLOUDY    18   6  59 SW16G23   30.23F WCI   3
REDWOOD FALLS  CLOUDY    13   4  67 SW13      30.26F WCI  -2
OLIVIA         CLOUDY    16   7  67 SW14      30.23F WCI   1
PIPESTONE      CLOUDY     9   1  72 SW13      30.28S WCI  -7
WINDOM         CLOUDY    14  -2  48 SW21G26   30.28F WCI  -4
WORTHINGTON    CLOUDY    12   3  67 SW29      30.27F WCI  -9
JACKSON        CLOUDY    14   5  67 SW20G26   30.31S WCI  -3
SLAYTON        CLOUDY    10   3  71 SW22G28   30.26F WCI  -9
$$
MNZ065>067-074>077-082>085-091>093-171700-
   South Central Minnesota

CITY           SKY/WX    TMP DP  RH WIND       PRES   REMARKS
MANKATO        FAIR      13   4  67 SW14      30.31F WCI  -2
NEW ULM        CLOUDY    14   3  62 SW16      30.28F WCI  -2
ST JAMES       CLOUDY    14   5  67 S14       30.31F WCI  -1
FAIRMONT       CLOUDY    15   5  64 SW22      30.32F WCI  -3
FARIBAULT      FLURRIES  12   3  67 S12G17    30.32R WCI  -2
OWATONNA       FAIR      12   3  67 SW17      30.32S WCI  -5
WASECA         FAIR      12   3  67 SW18      30.33F WCI  -5
ALBERT LEA     FAIR      12   1  62 SW15G22   30.33F WCI  -4
$$
MNZ078>079-086>088-094>096-171700-
   Southeast Minnesota

CITY           SKY/WX    TMP DP  RH WIND       PRES   REMARKS
ROCHESTER      FAIR      10   2  69 SW23      30.32F WCI -10
RED WING       FAIR      14   0  52 SW10      30.32F WCI   1
STANTON        FAIR      14   3  62 SW16      30.30S WCI  -2
DODGE CENTER   FAIR      10   1  67 SW18      30.31F WCI  -8
WINONA         FAIR      14   3  62 SW6       30.37F WCI   5
AUSTIN         FAIR       9   1  72 SW15      30.36F WCI  -8
PRESTON        FAIR      11   0  60 SW16G25   30.36S WCI  -6
$$
ABBREVIATIONS USED IN REMARKS
   TC - TEMPERATURES IN CELSIUS
  WCI - WIND CHILL INDEX
   HX - HEAT INDEX
  VSB - VISIBILITY
$$




USA.gov is the U.S. government's official web portal to all federal, state and local government web resources and services.